Wind From: 11-12-2017 12:03 Until: 12-12-2017 06:00 warning for: Wind Level: Orange info button

Power and phone distribution networks may be disrupted for relatively long periods., Roofs and chimneys can be damaged. , Tree branches may break. , Vehicles can be deported. , Traffic may be disrupted, particularly on secondary roads in forest areas. Limit your trips. , Limit your speed in highway driving, especially if you drive a vehicle or hitch sensitive to wind. , Do not go for walks in forests or along the coast., In town, be vigilant against possible falling objects., Do not work on roofs and do not touch any electrical line fallen on the ground., Store or secure sensitive objects to wind or likely to be damaged., Always install power generators outside buildings. 


Meteo18 Weather Cam more information Meteo18 Weather Cam


Thunder radar more information blitzortung!


Rain radar more information rain snow radar


Visit our other weather sites:

Template documentation
and downloads

And another site



Weather Underground History page Text

Daily Summary for April 26, 2016 Units:  Metric    English   Both
« Previous Day
Next Day »
Daily Weekly Monthly Yearly Custom
  High: Low: Average:
Temperature: 9.2 °C 1.4 °C 6.4 °C
Dew Point: 6.1 °C 0.4 °C 4.3 °C
Humidity: 93 % 74 % 87 %
Wind Speed: 12.9 km/h 0.0 km/h 1.5 km/h
Wind Gust: 20.9 km/h - -
Wind:- - South
Pressure: 1011.1 hPa 1007.0 hPa -
Precipitation: 2.5 mm    
Historical Graphs
 
 
Tabular Data for April 26, 2016
Time Temperature Dew Point Pressure Wind Wind Speed Wind Gust Humidity Rainfall Rate (Hourly)
00:02 7.7 °C 4.5 °C 1010.4 hPa SW 1.6 km/h 11.3 km/h 80 % 0.0 mm
00:07 7.7 °C 4.5 °C 1010.4 hPa WSW 3.2 km/h 11.3 km/h 80 % 0.0 mm
00:12 7.7 °C 4.5 °C 1010.4 hPa SW 1.6 km/h 11.3 km/h 80 % 0.0 mm
00:17 7.7 °C 4.6 °C 1010.0 hPa WSW 1.6 km/h 11.3 km/h 81 % 0.0 mm
00:22 7.7 °C 4.6 °C 1010.0 hPa SW 9.7 km/h 11.3 km/h 81 % 0.0 mm
00:27 7.6 °C 4.5 °C 1010.0 hPa WSW 1.6 km/h 11.3 km/h 81 % 0.0 mm
00:32 7.6 °C 4.7 °C 1010.0 hPa WSW 1.6 km/h 14.5 km/h 82 % 0.0 mm
00:37 7.6 °C 4.7 °C 1010.0 hPa SSE 4.8 km/h 14.5 km/h 82 % 0.0 mm
00:42 7.6 °C 4.7 °C 1010.0 hPa SW 1.6 km/h 14.5 km/h 82 % 0.0 mm
00:47 7.6 °C 4.7 °C 1010.0 hPa SW 4.8 km/h 9.7 km/h 82 % 0.0 mm
00:52 7.6 °C 4.7 °C 1010.0 hPa WSW 3.2 km/h 9.7 km/h 82 % 0.0 mm
00:57 7.6 °C 4.9 °C 1009.7 hPa West 1.6 km/h 8.0 km/h 83 % 0.0 mm
01:02 7.6 °C 4.9 °C 1009.7 hPa SW 9.7 km/h 9.7 km/h 83 % 0.0 mm
01:07 7.6 °C 4.9 °C 1009.7 hPa SW 1.6 km/h 9.7 km/h 83 % 0.0 mm
01:12 7.6 °C 4.9 °C 1009.7 hPa SW 1.6 km/h 9.7 km/h 83 % 0.0 mm
01:17 7.6 °C 4.9 °C 1009.7 hPa West 1.6 km/h 9.7 km/h 83 % 0.0 mm
01:22 7.6 °C 5.1 °C 1009.7 hPa Calm   9.7 km/h 84 % 0.0 mm
01:27 7.6 °C 5.1 °C 1009.7 hPa Calm   8.0 km/h 84 % 0.0 mm
01:32 7.6 °C 5.2 °C 1009.4 hPa SW 1.6 km/h 8.0 km/h 85 % 0.0 mm
01:37 7.5 °C 5.3 °C 1009.7 hPa Calm   8.0 km/h 86 % 0.0 mm
01:42 7.3 °C 5.3 °C 1009.4 hPa Calm   8.0 km/h 87 % 0.0 mm
01:47 7.2 °C 5.3 °C 1009.4 hPa WSW 1.6 km/h 6.4 km/h 88 % 0.0 mm
01:52 7.2 °C 5.3 °C 1009.4 hPa SW 1.6 km/h 6.4 km/h 88 % 0.0 mm
01:57 7.2 °C 5.5 °C 1009.4 hPa NW 1.6 km/h 8.0 km/h 89 % 0.0 mm
02:02 7.2 °C 5.5 °C 1009.4 hPa WSW 3.2 km/h 8.0 km/h 89 % 0.0 mm
02:07 7.2 °C 5.5 °C 1009.4 hPa Calm   8.0 km/h 89 % 0.0 mm
02:12 7.1 °C 5.4 °C 1009.4 hPa SW 1.6 km/h 6.4 km/h 89 % 0.0 mm
02:17 7.1 °C 5.4 °C 1009.4 hPa Calm   6.4 km/h 89 % 0.0 mm
02:22 7.1 °C 5.4 °C 1009.4 hPa SW 1.6 km/h 6.4 km/h 89 % 0.0 mm
02:27 6.9 °C 5.4 °C 1009.4 hPa Calm   8.0 km/h 90 % 0.3 mm
02:32 6.9 °C 5.4 °C 1009.0 hPa Calm   8.0 km/h 90 % 0.3 mm
02:37 6.8 °C 5.4 °C 1009.0 hPa Calm   6.4 km/h 91 % 0.5 mm
02:42 6.8 °C 5.4 °C 1009.0 hPa Calm   6.4 km/h 91 % 0.5 mm
02:47 6.8 °C 5.6 °C 1009.0 hPa Calm   4.8 km/h 92 % 0.5 mm
02:52 6.7 °C 5.5 °C 1009.0 hPa Calm   4.8 km/h 92 % 0.5 mm
02:57 6.7 °C 5.5 °C 1009.0 hPa Calm   3.2 km/h 92 % 0.5 mm
03:02 6.7 °C 5.6 °C 1009.0 hPa SW 3.2 km/h 3.2 km/h 93 % 0.5 mm
03:07 6.7 °C 5.6 °C 1008.7 hPa Calm   4.8 km/h 93 % 0.5 mm
03:12 6.7 °C 5.6 °C 1008.7 hPa SW 1.6 km/h 4.8 km/h 93 % 0.5 mm
03:17 6.7 °C 5.6 °C 1008.7 hPa Calm   3.2 km/h 93 % 0.5 mm
03:22 6.7 °C 5.6 °C 1008.7 hPa Calm   3.2 km/h 93 % 0.5 mm
03:27 6.7 °C 5.6 °C 1008.7 hPa WSW 1.6 km/h 4.8 km/h 93 % 0.3 mm
03:32 6.7 °C 5.6 °C 1008.4 hPa WSW 1.6 km/h 4.8 km/h 93 % 0.3 mm
03:37 6.7 °C 5.6 °C 1008.4 hPa Calm   4.8 km/h 93 % 0.0 mm
03:42 6.7 °C 5.6 °C 1008.4 hPa WSW 1.6 km/h 4.8 km/h 93 % 0.0 mm
03:47 6.7 °C 5.6 °C 1008.4 hPa Calm   6.4 km/h 93 % 0.3 mm
03:57 6.6 °C 5.5 °C 1008.4 hPa Calm   6.4 km/h 93 % 0.3 mm
04:02 6.6 °C 5.4 °C 1008.4 hPa Calm   6.4 km/h 92 % 0.3 mm
04:07 6.6 °C 5.4 °C 1008.4 hPa Calm   3.2 km/h 92 % 0.3 mm
04:12 6.5 °C 5.4 °C 1008.4 hPa WSW 3.2 km/h 3.2 km/h 93 % 0.3 mm
04:17 6.5 °C 5.4 °C 1008.4 hPa SW 1.6 km/h 4.8 km/h 93 % 0.3 mm
04:22 6.5 °C 5.4 °C 1008.4 hPa SW 1.6 km/h 4.8 km/h 93 % 0.3 mm
04:27 6.6 °C 5.5 °C 1008.4 hPa Calm   8.0 km/h 93 % 0.3 mm
04:32 6.6 °C 5.5 °C 1008.4 hPa Calm   8.0 km/h 93 % 0.3 mm
04:37 6.5 °C 5.4 °C 1008.4 hPa Calm   8.0 km/h 93 % 0.3 mm
04:42 6.5 °C 5.4 °C 1008.4 hPa Calm   8.0 km/h 93 % 0.3 mm
04:47 6.5 °C 5.4 °C 1008.4 hPa Calm   4.8 km/h 93 % 0.0 mm
04:52 6.5 °C 5.4 °C 1008.0 hPa Calm   4.8 km/h 93 % 0.0 mm
05:02 6.5 °C 5.4 °C 1008.0 hPa Calm   4.8 km/h 93 % 0.0 mm
05:17 6.6 °C 5.5 °C 1008.0 hPa Calm   6.4 km/h 93 % 0.0 mm
05:22 6.6 °C 5.5 °C 1008.0 hPa Calm   6.4 km/h 93 % 0.0 mm
05:27 6.6 °C 5.5 °C 1008.0 hPa SW 1.6 km/h 8.0 km/h 93 % 0.0 mm
05:32 6.6 °C 5.5 °C 1008.0 hPa SW 3.2 km/h 8.0 km/h 93 % 0.0 mm
05:42 6.6 °C 5.5 °C 1007.7 hPa Calm   11.3 km/h 93 % 0.0 mm
05:47 6.5 °C 5.3 °C 1008.0 hPa Calm   11.3 km/h 92 % 0.0 mm
05:52 6.5 °C 5.4 °C 1008.0 hPa Calm   11.3 km/h 93 % 0.0 mm
05:57 6.4 °C 5.4 °C 1007.7 hPa Calm   4.8 km/h 93 % 0.0 mm
06:02 6.4 °C 5.4 °C 1008.0 hPa Calm   4.8 km/h 93 % 0.0 mm
06:07 6.4 °C 5.4 °C 1008.0 hPa Calm   3.2 km/h 93 % 0.0 mm
06:12 6.4 °C 5.4 °C 1008.0 hPa SW 1.6 km/h 3.2 km/h 93 % 0.0 mm
06:17 6.4 °C 5.4 °C 1008.0 hPa Calm   4.8 km/h 93 % 0.0 mm
06:22 6.4 °C 5.4 °C 1008.0 hPa Calm   4.8 km/h 93 % 0.0 mm
06:27 6.4 °C 5.4 °C 1008.0 hPa SW 1.6 km/h 3.2 km/h 93 % 0.0 mm
06:32 6.4 °C 5.2 °C 1008.0 hPa Calm   3.2 km/h 92 % 0.0 mm
06:37 6.4 °C 5.2 °C 1008.0 hPa Calm   3.2 km/h 92 % 0.0 mm
06:52 6.5 °C 5.3 °C 1007.7 hPa Calm   4.8 km/h 92 % 0.0 mm
07:02 6.5 °C 5.1 °C 1008.0 hPa Calm   3.2 km/h 91 % 0.0 mm
07:12 6.6 °C 5.2 °C 1008.0 hPa SW 1.6 km/h 6.4 km/h 91 % 0.0 mm
07:17 6.6 °C 5.2 °C 1008.0 hPa Calm   4.8 km/h 91 % 0.0 mm
07:22 6.6 °C 5.2 °C 1008.0 hPa SSE 1.6 km/h 4.8 km/h 91 % 0.0 mm
07:32 6.6 °C 5.2 °C 1008.0 hPa Calm   4.8 km/h 91 % 0.0 mm
07:42 6.6 °C 5.1 °C 1008.0 hPa Calm   6.4 km/h 90 % 0.0 mm
07:52 6.6 °C 5.1 °C 1008.0 hPa Calm   6.4 km/h 90 % 0.0 mm
07:57 6.7 °C 5.2 °C 1008.0 hPa Calm   4.8 km/h 90 % 0.0 mm
08:02 6.7 °C 5.3 °C 1008.0 hPa Calm   4.8 km/h 91 % 0.0 mm
08:12 6.7 °C 5.2 °C 1008.0 hPa SSW 1.6 km/h 4.8 km/h 90 % 0.0 mm
08:22 6.9 °C 5.4 °C 1008.0 hPa Calm   6.4 km/h 90 % 0.0 mm
08:32 6.9 °C 5.2 °C 1008.0 hPa Calm   6.4 km/h 89 % 0.0 mm
08:42 7.0 °C 5.0 °C 1008.0 hPa Calm   4.8 km/h 87 % 0.0 mm
08:47 7.1 °C 5.1 °C 1008.0 hPa Calm   6.4 km/h 87 % 0.0 mm
08:52 7.1 °C 5.1 °C 1008.0 hPa Calm   6.4 km/h 87 % 0.0 mm
09:02 7.2 °C 5.0 °C 1008.0 hPa South 1.6 km/h 6.4 km/h 86 % 0.0 mm
09:07 7.2 °C 5.0 °C 1008.0 hPa Calm   8.0 km/h 86 % 0.0 mm
09:12 7.2 °C 5.0 °C 1008.0 hPa SW 3.2 km/h 8.0 km/h 86 % 0.0 mm
09:17 7.3 °C 5.3 °C 1008.0 hPa Calm   8.0 km/h 87 % 0.0 mm
09:22 7.4 °C 5.4 °C 1008.0 hPa Calm   8.0 km/h 87 % 0.0 mm
09:32 7.7 °C 5.7 °C 1008.0 hPa Calm   4.8 km/h 87 % 0.0 mm
09:37 7.7 °C 5.7 °C 1008.0 hPa Calm   3.2 km/h 87 % 0.0 mm
09:42 7.8 °C 5.8 °C 1008.0 hPa Calm   3.2 km/h 87 % 0.0 mm
09:52 7.8 °C 5.6 °C 1008.0 hPa SW 3.2 km/h 4.8 km/h 86 % 0.0 mm
10:02 8.2 °C 5.8 °C 1008.0 hPa SSW 3.2 km/h 4.8 km/h 85 % 0.0 mm
10:17 8.7 °C 6.1 °C 1008.4 hPa Calm   6.4 km/h 84 % 0.0 mm
10:22 8.7 °C 6.0 °C 1008.0 hPa SW 3.2 km/h 6.4 km/h 83 % 0.0 mm
10:27 8.6 °C 5.7 °C 1008.0 hPa Calm   8.0 km/h 82 % 0.0 mm
10:32 8.6 °C 5.7 °C 1008.0 hPa Calm   8.0 km/h 82 % 0.0 mm
10:37 8.6 °C 5.3 °C 1008.0 hPa SSE 3.2 km/h 8.0 km/h 80 % 0.0 mm
10:42 8.4 °C 5.3 °C 1008.0 hPa SW 3.2 km/h 8.0 km/h 81 % 0.0 mm
10:47 8.4 °C 5.2 °C 1008.0 hPa SW 3.2 km/h 8.0 km/h 80 % 0.0 mm
10:52 8.5 °C 5.2 °C 1008.0 hPa SW 1.6 km/h 8.0 km/h 80 % 0.0 mm
10:57 8.6 °C 5.5 °C 1008.0 hPa SW 3.2 km/h 9.7 km/h 81 % 0.0 mm
11:02 8.7 °C 5.8 °C 1007.7 hPa WSW 4.8 km/h 9.7 km/h 82 % 0.0 mm
11:07 8.4 °C 5.2 °C 1007.7 hPa Calm   11.3 km/h 80 % 0.0 mm
11:12 8.3 °C 5.6 °C 1007.7 hPa Calm   11.3 km/h 83 % 0.0 mm
11:17 7.9 °C 5.5 °C 1008.0 hPa Calm   11.3 km/h 85 % 0.3 mm
11:22 7.8 °C 5.8 °C 1008.0 hPa Calm   11.3 km/h 87 % 0.3 mm
11:32 7.5 °C 5.6 °C 1007.7 hPa Calm   6.4 km/h 88 % 0.5 mm
11:37 7.4 °C 5.5 °C 1007.7 hPa Calm   6.4 km/h 88 % 0.8 mm
11:42 7.5 °C 5.8 °C 1008.0 hPa Calm   6.4 km/h 89 % 0.8 mm
11:47 7.5 °C 5.6 °C 1008.0 hPa Calm   8.0 km/h 88 % 0.8 mm
11:52 7.4 °C 5.5 °C 1008.0 hPa Calm   8.0 km/h 88 % 1.3 mm
11:57 7.2 °C 5.3 °C 1008.0 hPa Calm   8.0 km/h 88 % 1.8 mm
12:12 7.6 °C 5.9 °C 1008.0 hPa Calm   4.8 km/h 89 % 2.0 mm
12:17 7.8 °C 5.8 °C 1008.0 hPa WSW 4.8 km/h 4.8 km/h 87 % 1.8 mm
12:22 7.8 °C 5.9 °C 1008.0 hPa SSW 1.6 km/h 9.7 km/h 88 % 1.5 mm
12:27 7.9 °C 6.0 °C 1008.0 hPa East 1.6 km/h 9.7 km/h 88 % 1.5 mm
12:32 7.8 °C 5.6 °C 1008.0 hPa West 4.8 km/h 9.7 km/h 86 % 1.3 mm
12:42 8.1 °C 6.1 °C 1008.0 hPa Calm   6.4 km/h 87 % 1.3 mm
12:47 8.4 °C 6.0 °C 1008.0 hPa SW 4.8 km/h 4.8 km/h 85 % 1.0 mm
12:52 8.3 °C 5.8 °C 1008.0 hPa SW 1.6 km/h 4.8 km/h 84 % 1.0 mm
12:57 8.2 °C 5.8 °C 1008.0 hPa SSE 6.4 km/h 9.7 km/h 85 % 0.0 mm
13:02 8.0 °C 5.6 °C 1008.0 hPa NE 1.6 km/h 9.7 km/h 85 % 0.0 mm
13:07 7.7 °C 5.2 °C 1008.0 hPa WSW 1.6 km/h 6.4 km/h 84 % 0.0 mm
13:12 7.6 °C 5.4 °C 1008.0 hPa Calm   6.4 km/h 86 % 0.0 mm
13:17 7.6 °C 5.6 °C 1008.0 hPa Calm   9.7 km/h 87 % 0.0 mm
13:22 7.4 °C 5.2 °C 1008.0 hPa Calm   9.7 km/h 86 % 0.0 mm
13:27 7.3 °C 4.9 °C 1008.0 hPa SW 1.6 km/h 6.4 km/h 85 % 0.0 mm
13:32 7.2 °C 4.8 °C 1008.4 hPa Calm   6.4 km/h 85 % 0.0 mm
13:37 7.1 °C 4.7 °C 1008.0 hPa SSW 1.6 km/h 8.0 km/h 85 % 0.0 mm
13:42 7.0 °C 4.8 °C 1008.0 hPa Calm   8.0 km/h 86 % 0.0 mm
13:47 6.9 °C 4.7 °C 1008.0 hPa SW 4.8 km/h 4.8 km/h 86 % 0.0 mm
13:52 6.9 °C 4.9 °C 1008.0 hPa East 4.8 km/h 4.8 km/h 87 % 0.0 mm
13:57 7.1 °C 5.1 °C 1008.0 hPa Calm   8.0 km/h 87 % 0.0 mm
14:02 7.3 °C 5.3 °C 1008.0 hPa SSE 3.2 km/h 8.0 km/h 87 % 0.0 mm
14:07 7.3 °C 4.8 °C 1007.7 hPa Calm   8.0 km/h 84 % 0.0 mm
14:12 7.4 °C 4.9 °C 1008.0 hPa ESE 1.6 km/h 8.0 km/h 84 % 0.0 mm
14:17 7.4 °C 4.9 °C 1008.0 hPa WSW 1.6 km/h 8.0 km/h 84 % 0.0 mm
14:22 7.4 °C 4.9 °C 1007.7 hPa WSW 3.2 km/h 8.0 km/h 84 % 0.0 mm
14:27 7.4 °C 5.0 °C 1007.7 hPa SW 8.0 km/h 9.7 km/h 85 % 0.0 mm
14:32 7.2 °C 4.8 °C 1007.7 hPa SW 3.2 km/h 9.7 km/h 85 % 0.0 mm
14:37 7.2 °C 5.0 °C 1007.7 hPa SSE 6.4 km/h 9.7 km/h 86 % 0.0 mm
14:42 7.6 °C 5.6 °C 1007.7 hPa SW 3.2 km/h 9.7 km/h 87 % 0.0 mm
14:47 8.4 °C 6.0 °C 1007.7 hPa Calm   9.7 km/h 85 % 0.0 mm
14:52 8.8 °C 5.9 °C 1007.7 hPa SW 6.4 km/h 9.7 km/h 82 % 0.0 mm
14:57 8.9 °C 5.8 °C 1007.3 hPa SW 1.6 km/h 8.0 km/h 81 % 0.0 mm
15:02 9.2 °C 5.9 °C 1007.3 hPa SW 3.2 km/h 8.0 km/h 80 % 0.0 mm
15:07 9.1 °C 5.1 °C 1007.7 hPa NE 6.4 km/h 8.0 km/h 76 % 0.0 mm
15:12 7.9 °C 4.5 °C 1007.7 hPa NE 6.4 km/h 8.0 km/h 79 % 0.0 mm
15:17 7.0 °C 4.0 °C 1007.7 hPa SE 1.6 km/h 12.9 km/h 81 % 0.0 mm
15:22 6.6 °C 3.9 °C 1007.7 hPa SSE 4.8 km/h 12.9 km/h 83 % 0.0 mm
15:27 6.4 °C 4.1 °C 1007.7 hPa Calm   9.7 km/h 85 % 0.0 mm
15:32 6.4 °C 3.7 °C 1007.7 hPa Calm   9.7 km/h 83 % 0.0 mm
15:37 6.5 °C 3.8 °C 1007.7 hPa SW 1.6 km/h 9.7 km/h 83 % 0.0 mm
15:42 6.6 °C 3.9 °C 1007.7 hPa SW 1.6 km/h 9.7 km/h 83 % 0.0 mm
15:47 6.8 °C 3.9 °C 1007.3 hPa WSW 4.8 km/h 9.7 km/h 82 % 0.0 mm
15:52 6.8 °C 3.9 °C 1007.3 hPa Calm   9.7 km/h 82 % 0.0 mm
15:57 6.8 °C 3.8 °C 1007.3 hPa Calm   9.7 km/h 81 % 0.0 mm
16:02 6.8 °C 3.6 °C 1007.3 hPa Calm   9.7 km/h 80 % 0.0 mm
16:07 6.8 °C 3.2 °C 1007.3 hPa Calm   4.8 km/h 78 % 0.0 mm
16:12 6.8 °C 3.4 °C 1007.3 hPa SW 1.6 km/h 4.8 km/h 79 % 0.0 mm
16:17 6.9 °C 3.7 °C 1007.3 hPa SW 1.6 km/h 4.8 km/h 80 % 0.0 mm
16:22 7.2 °C 4.0 °C 1007.3 hPa SW 1.6 km/h 4.8 km/h 80 % 0.0 mm
16:27 7.4 °C 4.0 °C 1007.3 hPa SW 1.6 km/h 4.8 km/h 79 % 0.0 mm
16:32 7.5 °C 3.9 °C 1007.3 hPa Calm   4.8 km/h 78 % 0.0 mm
16:37 7.6 °C 3.8 °C 1007.3 hPa Calm   6.4 km/h 77 % 0.0 mm
16:42 7.7 °C 3.9 °C 1007.3 hPa SW 3.2 km/h 6.4 km/h 77 % 0.0 mm
16:52 8.1 °C 4.3 °C 1007.0 hPa SW 3.2 km/h 4.8 km/h 77 % 0.0 mm
16:57 8.2 °C 4.0 °C 1007.0 hPa Calm   4.8 km/h 75 % 0.0 mm
17:02 8.3 °C 4.3 °C 1007.3 hPa Calm   4.8 km/h 76 % 0.0 mm
17:07 8.4 °C 4.4 °C 1007.3 hPa SW 1.6 km/h 6.4 km/h 76 % 0.0 mm
17:12 8.6 °C 4.8 °C 1007.3 hPa Calm   6.4 km/h 77 % 0.0 mm
17:17 8.7 °C 4.7 °C 1007.3 hPa ENE 1.6 km/h 4.8 km/h 76 % 0.0 mm
17:22 8.6 °C 4.2 °C 1007.3 hPa SW 3.2 km/h 4.8 km/h 74 % 0.0 mm
17:27 8.4 °C 4.0 °C 1008.0 hPa NE 4.8 km/h 4.8 km/h 74 % 0.0 mm
17:32 7.4 °C 4.0 °C 1007.7 hPa ENE 12.9 km/h 12.9 km/h 79 % 0.0 mm
17:37 6.8 °C 3.6 °C 1008.0 hPa ENE 6.4 km/h 20.9 km/h 80 % 0.0 mm
17:42 6.6 °C 3.7 °C 1008.0 hPa SE 1.6 km/h 20.9 km/h 82 % 0.0 mm
17:47 6.6 °C 3.9 °C 1008.0 hPa ENE 9.7 km/h 19.3 km/h 83 % 0.0 mm
17:57 6.5 °C 3.8 °C 1008.0 hPa NE 6.4 km/h 17.7 km/h 83 % 0.0 mm
18:02 6.4 °C 3.9 °C 1008.4 hPa ENE 6.4 km/h 17.7 km/h 84 % 0.0 mm
18:07 6.4 °C 3.7 °C 1008.4 hPa ENE 9.7 km/h 19.3 km/h 83 % 0.0 mm
18:12 6.4 °C 3.6 °C 1008.4 hPa NE 8.0 km/h 19.3 km/h 82 % 0.0 mm
18:17 6.4 °C 3.7 °C 1008.4 hPa East 3.2 km/h 19.3 km/h 83 % 0.0 mm
18:22 6.3 °C 3.6 °C 1008.4 hPa NE 9.7 km/h 16.1 km/h 83 % 0.0 mm
18:27 6.1 °C 3.4 °C 1008.7 hPa NNE 1.6 km/h 16.1 km/h 83 % 0.0 mm
18:32 5.9 °C 3.1 °C 1008.7 hPa NE 3.2 km/h 16.1 km/h 82 % 0.0 mm
18:42 5.7 °C 3.0 °C 1008.7 hPa NE 1.6 km/h 16.1 km/h 83 % 0.0 mm
18:47 5.7 °C 3.4 °C 1008.7 hPa ENE 1.6 km/h 11.3 km/h 85 % 0.0 mm
18:52 5.7 °C 3.4 °C 1008.7 hPa NE 3.2 km/h 11.3 km/h 85 % 0.0 mm
18:57 5.8 °C 3.3 °C 1008.7 hPa ENE 3.2 km/h 6.4 km/h 84 % 0.0 mm
19:02 5.8 °C 3.5 °C 1008.7 hPa NNE 6.4 km/h 6.4 km/h 85 % 0.0 mm
19:07 5.8 °C 3.0 °C 1009.0 hPa NNE 1.6 km/h 6.4 km/h 82 % 0.0 mm
19:12 5.8 °C 3.0 °C 1008.7 hPa NE 8.0 km/h 8.0 km/h 82 % 0.0 mm
19:22 5.7 °C 2.5 °C 1009.0 hPa NE 3.2 km/h 12.9 km/h 80 % 0.0 mm
19:32 5.6 °C 2.6 °C 1009.0 hPa NE 3.2 km/h 12.9 km/h 81 % 0.0 mm
19:37 5.5 °C 2.5 °C 1009.0 hPa Calm   17.7 km/h 81 % 0.0 mm
19:42 5.4 °C 2.6 °C 1009.0 hPa NE 1.6 km/h 17.7 km/h 82 % 0.0 mm
19:47 5.4 °C 2.7 °C 1009.4 hPa Calm   9.7 km/h 83 % 0.0 mm
19:52 5.3 °C 2.8 °C 1009.4 hPa ENE 1.6 km/h 9.7 km/h 84 % 0.0 mm
20:02 5.3 °C 2.8 °C 1009.4 hPa NE 3.2 km/h 8.0 km/h 84 % 0.0 mm
20:12 5.0 °C 2.7 °C 1009.4 hPa ENE 1.6 km/h 11.3 km/h 85 % 0.0 mm
20:17 4.9 °C 2.6 °C 1009.4 hPa NNE 3.2 km/h 11.3 km/h 85 % 0.0 mm
20:22 4.8 °C 2.7 °C 1009.4 hPa Calm   11.3 km/h 86 % 0.0 mm
20:27 4.8 °C 2.7 °C 1009.4 hPa Calm   8.0 km/h 86 % 0.0 mm
20:32 4.7 °C 2.6 °C 1009.7 hPa Calm   8.0 km/h 86 % 0.0 mm
20:37 4.7 °C 2.6 °C 1009.7 hPa Calm   3.2 km/h 86 % 0.0 mm
20:42 4.6 °C 2.6 °C 1009.7 hPa Calm   3.2 km/h 87 % 0.0 mm
20:47 4.6 °C 2.6 °C 1009.7 hPa Calm   1.6 km/h 87 % 0.0 mm
20:52 4.5 °C 2.5 °C 1009.7 hPa Calm   1.6 km/h 87 % 0.0 mm
21:02 4.5 °C 2.7 °C 1009.7 hPa Calm   1.6 km/h 88 % 0.0 mm
21:07 4.5 °C 2.8 °C 1010.0 hPa Calm     89 % 0.0 mm
21:12 4.4 °C 2.6 °C 1010.0 hPa Calm     88 % 0.0 mm
21:17 4.4 °C 2.6 °C 1010.0 hPa Calm   1.6 km/h 88 % 0.0 mm
21:22 4.3 °C 2.5 °C 1010.0 hPa Calm   1.6 km/h 88 % 0.0 mm
21:32 4.1 °C 2.1 °C 1010.0 hPa Calm     87 % 0.0 mm
21:37 3.8 °C 1.8 °C 1010.0 hPa Calm     87 % 0.0 mm
21:42 3.4 °C 1.4 °C 1010.0 hPa Calm     87 % 0.0 mm
21:47 3.1 °C 1.3 °C 1010.4 hPa Calm     88 % 0.0 mm
21:52 2.8 °C 1.2 °C 1010.4 hPa Calm     89 % 0.0 mm
21:57 2.6 °C 1.1 °C 1010.4 hPa Calm     90 % 0.0 mm
22:02 2.4 °C 1.1 °C 1010.4 hPa Calm     91 % 0.0 mm
22:07 2.3 °C 1.0 °C 1010.7 hPa Calm     91 % 0.0 mm
22:12 2.3 °C 1.1 °C 1010.7 hPa Calm     92 % 0.0 mm
22:17 2.2 °C 1.0 °C 1010.7 hPa Calm   1.6 km/h 92 % 0.0 mm
22:22 2.2 °C 1.0 °C 1010.7 hPa Calm   1.6 km/h 92 % 0.0 mm
22:27 2.1 °C 0.9 °C 1010.7 hPa Calm     92 % 0.0 mm
22:32 1.9 °C 0.7 °C 1010.7 hPa Calm     92 % 0.0 mm
22:37 1.8 °C 0.6 °C 1010.7 hPa Calm     92 % 0.0 mm
22:42 1.8 °C 0.6 °C 1010.7 hPa Calm     92 % 0.0 mm
22:47 1.7 °C 0.5 °C 1010.7 hPa Calm     92 % 0.0 mm
22:52 1.7 °C 0.7 °C 1010.7 hPa Calm     93 % 0.0 mm
22:57 1.6 °C 0.6 °C 1010.7 hPa Calm     93 % 0.0 mm
23:02 1.4 °C 0.4 °C 1011.1 hPa Calm     93 % 0.0 mm
23:07 1.4 °C 0.4 °C 1011.1 hPa Calm     93 % 0.0 mm
23:12 1.4 °C 0.4 °C 1011.1 hPa Calm     93 % 0.0 mm
23:17 1.4 °C 0.4 °C 1011.1 hPa Calm     93 % 0.0 mm
23:22 1.4 °C 0.4 °C 1011.1 hPa Calm     93 % 0.0 mm
23:27 1.4 °C 0.4 °C 1011.1 hPa Calm     93 % 0.0 mm
23:32 1.4 °C 0.4 °C 1011.1 hPa Calm     93 % 0.0 mm
23:37 1.4 °C 0.4 °C 1011.1 hPa Calm     93 % 0.0 mm
23:42 1.4 °C 0.4 °C 1011.1 hPa Calm     93 % 0.0 mm
23:47 1.4 °C 0.4 °C 1011.1 hPa Calm   1.6 km/h 93 % 0.0 mm
23:52 1.6 °C 0.4 °C 1011.1 hPa Calm   1.6 km/h 92 % 0.0 mm
23:57 1.7 °C 0.5 °C 1011.1 hPa Calm   3.2 km/h 92 % 0.0 mm
Meteo18
Compliments of Weather Underground - 4 mb

Script developed by  Jim McMurry - jmcmurry@mwt.net Adapted for the template by  Wim van der Kuil - Leuven-Template.eu

You find our weather info also at:

European Weather Network

Weather Underground

Equipment we use:

Weather-station
Davis Vue

Weather-program
Meteohub

Weather-server
Raspberry PI 2 B+

Provider
1 and 1

Davis Vue

Meteohub

Raspberry PI 2 B+

1 and 1